Printer-friendly version

IAU Minor Planet Center

Minor Planet Center

MPEC 2006-A56 : 2006 AN8

The following Minor Planet Electronic Circular may be linked-to from your own Web pages, but must not otherwise be redistributed electronically.


Read MPEC 2006-A55 Read MPEC 2006-A57


M.P.E.C. 2006-A56                                Issued 2006 Jan. 10, 16:45 UT

     The Minor Planet Electronic Circulars contain information on unusual
         minor planets and routine data on comets.  They are published
   on behalf of Commission 20 of the International Astronomical Union by the
          Minor Planet Center, Smithsonian Astrophysical Observatory,
                          Cambridge, MA 02138, U.S.A.

                  Supported in part by the Brinson Foundation
                  Supported in part by the TABASGO Foundation
             Prepared using the Tamkin Foundation Computer Network

                              MPC@CFA.HARVARD.EDU
          URL http://cfa-www.harvard.edu/iau/mpc.html  ISSN 1523-6714

                                   2006 AN8

Observations:
     K06A08N* C2006 01 09.44611 07 56 14.42 +26 19 17.9          21.4 V EA056G96
     K06A08N  C2006 01 09.44827 07 56 14.38 +26 19 14.9          22.2 V EA056G96
     K06A08N  C2006 01 09.45044 07 56 14.38 +26 19 12.4          21.4 V EA056G96
     K06A08N  C2006 01 09.50056 07 56 13.88 +26 18 04.8          21.3 V EA056G96
     K06A08N  C2006 01 09.50199 07 56 13.84 +26 18 02.9          21.2 V EA056G96
     K06A08N  C2006 01 09.50340 07 56 13.81 +26 18 01.1          20.9 V EA056G96
     K06A08N  C2006 01 10.32978 07 56 17.98 +26 00 50.9          22.0 V EA056G96
     K06A08N  C2006 01 10.33515 07 56 17.88 +26 00 44.0          21.6 V EA056G96
     K06A08N  C2006 01 10.34052 07 56 17.73 +26 00 37.0          21.5 V EA056G96
     K06A08N  C2006 01 10.34590 07 56 17.62 +26 00 30.4          21.2 V EA056G96
     K06A08N  C2006 01 10.39260 07 56 16.83 +25 59 31.1                 EA056291
     K06A08N  C2006 01 10.39678 07 56 16.84 +25 59 25.2                 EA056291
     K06A08N  C2006 01 10.40173 07 56 16.69 +25 59 18.7                 EA056291

Observer details:
291 LPL/Spacewatch II.  Observer A. S. Descour.  1.8-m f/2.7 reflector + CCD.
G96 Mt. Lemmon Survey.  Observer R. Hill.  Measurers E. C. Beshore,
    E. J. Christensen, G. J. Garradd, A. D. Grauer, R. E. Hill, R. A. Kowalski,
    S. M. Larson, R. H. McNaught.  1.5-m reflector + CCD.

Orbital elements:
2006 AN8                                                 Earth MOID = 0.1756 AU
Epoch 2006 Mar. 6.0 TT = JDT 2453800.5                  MPC
M  33.58147              (2000.0)            P               Q
n   0.52580281     Peri.  158.88330     -0.22015282     -0.97413712
a   1.5202702      Node   303.80171     +0.88596702     -0.17785316
e   0.2383318      Incl.    3.51097     +0.40816073     -0.13937403
P   1.87           H   24.4           G   0.15           U   9
Residuals in seconds of arc
060109 G96  0.0   0.0     060109 G96  0.3-  0.1+    060110 291  0.4-  0.3+
060109 G96  0.2-  0.2-    060110 G96  0.4+  0.1+    060110 291  0.7+  0.1-
060109 G96  0.2+  0.2+    060110 G96  0.4+  0.0     060110 291  0.2-  0.1-
060109 G96  0.4+  0.1-    060110 G96  0.3-  0.2-
060109 G96  0.0   0.0     060110 G96  0.5-  0.0

Ephemeris:
2006 AN8                 a,e,i = 1.52, 0.24, 4                   q = 1.1579
Date    TT    R. A. (2000) Decl.     Delta      r     Elong.  Phase     V
2006 01 05    07 55.85   +27 50.4    0.179    1.158   166.9    11.1    21.7
2006 01 15    07 56.22   +24 21.8    0.180    1.163   176.1     3.3    21.3
2006 01 25    07 55.91   +20 53.0    0.190    1.173   172.1     6.6    21.6
2006 02 04    07 57.51   +17 48.3    0.209    1.187   162.7    14.3    22.2
2006 02 14    08 02.70   +15 18.3    0.238    1.206   154.1    21.0    22.7
2006 02 24    08 11.62   +13 21.9    0.276    1.229   146.4    26.4    23.2

Timothy B. Spahr             (C) Copyright 2006 MPC           M.P.E.C. 2006-A56

Read MPEC 2006-A55 Read MPEC 2006-A57


Our Web policy. Index to the CBAT/MPC/ICQ pages.


Valid HTML 4.01!